Regional Weather Roundup
Issued by NWS

Home | Current Version | Previous Version | Text Only | Print | Product List | Glossary Off
Versions: 1 2 3 4 5 6 7 8 9 10 11 12 13 14 15 16 17 18 19 20 21 22 23 24 25 26 27 28 29 30 31 32 33 34 35 36 37 38 39 40 41 42 43 44 45 46 47 48 49 50

000
ASUS43 KLSX 190810
RWRMO

WEATHER SUMMARY FOR MISSOURI
NATIONAL WEATHER SERVICE SPRINGFIELD MO
200 AM CST SUN FEB 19 2017

NOTE: "FAIR" INDICATES FEW OR NO CLOUDS BELOW 12,000 FEET WITH NO
       SIGNIFICANT WEATHER AND/OR OBSTRUCTIONS TO VISIBILITY.
       CURRENT SKY AND/OR WEATHER CONDITIONS ARE NOT AVAILABLE FOR
       CHILLICOTHE AND FARMINGTON.

MOZ001>031-035>038-043-044-053-054-190900-
...NORTHERN AND WESTERN MISSOURI...

CITY           SKY/WX    TMP DP  RH WIND       PRES   REMARKS
KANSAS CTY INT CLEAR     47  46  97 S5        29.89R
KANSAS C DTWN  PTCLDY    55  50  83 SW3       29.89R
LEE`S SUMMIT   CLEAR     52  49  89 SW7       29.91R
ST JOSEPH      CLEAR     39  34  82 CALM      29.89R
CHILLICOTHE      N/A     40  36  86 CALM      29.91R
KIRKSVILLE     CLOUDY    37  33  85 SW6       29.92R

$$
MOZ066>068-077>081-088>096-101>105-190900-
...SOUTHWEST MISSOURI...

CITY           SKY/WX    TMP DP  RH WIND       PRES   REMARKS
SPRINGFIELD    CLEAR     47  44  90 SE8       29.91S
JOPLIN         CLEAR     48  48 100 S5        29.92R FOG
BRANSON        CLEAR     50  48  93 CALM      29.94S

$$
MOZ032>034-039>042-045>050-055>058-069>072-190900-
...CENTRAL MISSOURI...

CITY           SKY/WX    TMP DP  RH WIND       PRES   REMARKS
COLUMBIA       CLEAR     49  44  83 SE6       29.92S
JEFFERSON CITY CLEAR     42  40  92 CALM      29.93R
ROLLA          CLEAR     49  48  97 S10       29.93R FOG
SEDALIA        CLEAR     53  49  86 SW9       29.91F
WHITEMAN AFB   CLEAR     47  47 100 SW6       29.90R
WARRENSBURG    CLEAR     48  46  93 CALM      29.90S
OSAGE BEACH    CLEAR     50  46  86 CALM      29.93S

$$
MOZ051-052-059>065-190900-
...EAST CENTRAL MISSOURI...

CITY           SKY/WX    TMP DP  RH WIND       PRES   REMARKS
ST LOUIS INTL  CLEAR     51  47  86 SW5       29.94R
SPIRIT OF STL  CLEAR     48  47  96 W7        29.93R
ST CHARLES     FOG       39  39 100 E3        29.94R VSB 1/4

$$
MOZ072>076-082>087-097>100-106>115-190900-
...SOUTH CENTRAL AND SOUTHEAST MISSOURI...

CITY           SKY/WX    TMP DP  RH WIND       PRES   REMARKS
CAPE GIRARDEAU FOG       49  49 100 CALM      29.98R VSB 1/4
FARMINGTON     CLOUDY    52  51  97 SW6       29.96S FOG
POPLAR BLUFF   FOG       46  46 100 CALM      29.99R VSB 1/2
WEST PLAINS    FOG       45  45 100 S3        29.96F VSB 1/4

$$



USA.gov is the U.S. government's official web portal to all federal, state and local government web resources and services.